Weather History for Harrison, AR

Change the Weather History Date:

Tuesday, November 2, 2010

  Actual Average Record
Temperature  
Mean Temperature 53 °F 54 °F  
Max Temperature 60 °F 65 °F 83 °F (1914)
Min Temperature 46 °F 43 °F 15 °F (1911)
Degree Days  
Heating Degree Days 12 12  
Month to date heating degree days 20 23  
Since 1 July heating degree days 185 288  
Cooling Degree Days 0 0  
Month to date cooling degree days 0 0  
Year to date cooling degree days 1865 1412  
Growing Degree Days 3 (Base 50)    
Moisture  
Dew Point 39 °F    
Average Humidity 64    
Maximum Humidity 82    
Minimum Humidity 46    
Precipitation  
Precipitation 0.04 in 0.14 in 2.55 in (1968)
Month to date precipitation 0.04 0.28  
Year to date precipitation 43.96 36.99  
Snow  
Snow 0.00 in 0.00 in 4.00 in (1951)
Month to date snowfall 0.0  
Since 1 July snowfall 0.0 0.1  
Since 1 September snowfall 0.0 0.1  
Snow Depth 0.00 in    
Sea Level Pressure  
Sea Level Pressure 30.16 in    
Wind  
Wind Speed 6 mph (North)    
Max Wind Speed 10 mph    
Max Gust Speed 15 mph    
Visibility 10 miles    
Events Rain    
T = Trace of Precipitation, MM = Missing Value Source: NWS Daily Summary

Daily Weather History Graph

Daily Weather History Graph

Search for Another Location

Airport:

Trip Planner

Search our weather history database for the weather conditions in past years. The results will help you decide how hot, cold, wet, or windy it might be!

Date:

Astronomy

Nov. 02, 2010 Rise Set
Actual Time 7:36 AM CDT 6:15 PM CDT
Civil Twilight 7:09 AM CDT 6:41 PM CDT
Nautical Twilight 6:39 AM CDT 7:12 PM CDT
Astronomical Twilight 6:09 AM CDT 7:42 PM CDT
Moon 3:31 AM CDT (11/2) 3:48 PM CDT (11/2)
Length of Visible Light 11h 32m
Length of Day
10h 38m
Waning Crescent, 16% of the Moon is Illuminated
Nov 2
Waning Crescent
Nov 5
New
Nov 13
First Quarter
Nov 21
Full
Nov 28
Last Quarter

Hourly Weather History & Observations

Time (CDT) Temp. Windchill Dew Point Humidity Pressure Visibility Wind Dir Wind Speed Gust Speed Precip Events Conditions
12:53 AM 55.9 °F - 39.9 °F 55% 30.20 in 10.0 mi NE 4.6 mph - N/A   Overcast
1:53 AM 55.0 °F - 41.0 °F 59% 30.19 in 10.0 mi ENE 3.5 mph - N/A   Overcast
2:53 AM 53.1 °F - 39.9 °F 61% 30.17 in 10.0 mi NE 8.1 mph - N/A   Scattered Clouds
3:53 AM 50.0 °F - 43.0 °F 77% 30.16 in 10.0 mi North 5.8 mph - N/A   Mostly Cloudy
4:53 AM 48.0 °F - 42.1 °F 80% 30.16 in 10.0 mi North 6.9 mph - N/A   Mostly Cloudy
5:53 AM 46.0 °F 43.9 °F 41.0 °F 83% 30.16 in 10.0 mi North 4.6 mph - N/A   Mostly Cloudy
6:53 AM 48.0 °F - 39.9 °F 74% 30.18 in 10.0 mi NNW 3.5 mph - N/A   Overcast
7:53 AM 46.9 °F - 39.9 °F 77% 30.19 in 4.0 mi NNW 4.6 mph - 0.03 in Rain Rain
8:53 AM 48.0 °F - 42.1 °F 80% 30.21 in 10.0 mi North 5.8 mph - 0.01 in   Overcast
9:53 AM 48.9 °F - 39.0 °F 69% 30.21 in 10.0 mi North 4.6 mph - N/A   Overcast
10:53 AM 50.0 °F - 39.9 °F 68% 30.19 in 10.0 mi NNW 4.6 mph - N/A   Mostly Cloudy
11:53 AM 51.1 °F - 39.0 °F 63% 30.19 in 10.0 mi North 8.1 mph - N/A   Mostly Cloudy
12:53 PM 53.1 °F - 39.0 °F 59% 30.17 in 10.0 mi North 5.8 mph - N/A   Overcast
1:53 PM 55.0 °F - 39.9 °F 57% 30.13 in 10.0 mi NNE 6.9 mph - N/A   Mostly Cloudy
2:53 PM 57.9 °F - 41.0 °F 53% 30.12 in 10.0 mi Variable 3.5 mph - N/A   Partly Cloudy
3:53 PM 59.0 °F - 39.9 °F 49% 30.11 in 10.0 mi North 3.5 mph - N/A   Clear
4:53 PM 60.1 °F - 39.9 °F 47% 30.10 in 10.0 mi North 6.9 mph - N/A   Partly Cloudy
5:53 PM 57.9 °F - 39.9 °F 51% 30.10 in 10.0 mi NNW 5.8 mph - N/A   Clear
6:53 PM 55.0 °F - 37.9 °F 53% 30.12 in 10.0 mi North 6.9 mph - N/A   Clear
7:53 PM 52.0 °F - 39.0 °F 61% 30.14 in 10.0 mi North 8.1 mph - N/A   Scattered Clouds
8:53 PM 51.1 °F - 37.9 °F 61% 30.14 in 10.0 mi North 6.9 mph - N/A   Overcast
9:53 PM 50.0 °F - 37.0 °F 61% 30.15 in 10.0 mi North 5.8 mph - N/A   Overcast
10:53 PM 50.0 °F - 35.1 °F 57% 30.16 in 10.0 mi North 5.8 mph - N/A   Scattered Clouds
11:53 PM 50.0 °F - 33.1 °F 52% 30.14 in 10.0 mi North 6.9 mph - N/A   Scattered Clouds